Regional Weather Roundup
Issued by NWS

Home | Current Version | Previous Version | Text Only | Print | Product List | Glossary On
Versions: 1 2 3 4 5 6 7 8 9 10 11 12 13 14 15 16 17 18 19 20 21 22 23 24 25 26 27 28 29 30 31 32 33 34 35 36 37 38 39 40 41 42 43 44 45 46 47 48 49 50
000
ASHW40 PHFO 261112
RWRHI

WEATHER ROUNDUP FOR HAWAII
NATIONAL WEATHER SERVICE HONOLULU HI
100 AM HST WED APR 26 2017

THIS IS AN AUTOMATED REPORT THAT HAS NOT BEEN QUALITY CONTROLLED.

NOTE..."FAIR" INDICATES FEW OR NO CLOUDS BELOW 12,000 FEET WITH NO
SIGNIFICANT WEATHER AND/OR OBSTRUCTIONS TO VISIBILITY.

* - THESE SITES REPORT LIMITED FIELDS

HIZ001>004-261200-
KAUAI-NIIHAU-

CITY           SKY/WX    TMP DP  RH WIND       PRES   REMARKS
LIHUE APT      MOCLDY    77  69  76 E14       30.12F
PORT ALLEN*      N/A     73 N/A N/A NE10        N/A
POIPU*           N/A     73 N/A N/A NE6         N/A
PRINCEVILLE*     N/A     72 N/A N/A SE2         N/A
KOKOLE POINT*  NOT AVBL
MOLOAA DAIRY*    N/A     73  66  78 E6G13       N/A
WAIMEA HTS*    NOT AVBL
PUU OPAE*      NOT AVBL
PUU LUA*       NOT AVBL
MAKAHA RIDGE*  NOT AVBL
$$

HIZ005>011-261200-
OAHU-

CITY           SKY/WX    TMP DP  RH WIND       PRES   REMARKS
HONOLULU       PTCLDY    76  65  68 E12       30.09F
KALAELOA       CLEAR     72  64  76 NE3       30.11F
KANEOHE MCB    NOT AVBL
WHEELER FIELD  NOT AVBL
BELLOWS*       NOT AVBL
KAHUKU*        NOT AVBL
WHEELER*       NOT AVBL
WAIANAE HARBOR NOT AVBL
DILLINGHAM*      N/A     81  79  94 W1          N/A
KAHUKU TRN*      N/A     72  68  88 W8G18       N/A
KAWAILOA*        N/A     70  63  78 E6G14       N/A
KII*             N/A     77  68  73 E15G21      N/A
MAKUA RANGE*     N/A     72  63  73 NW3         N/A
OAHU FOREST NW NOT AVBL
SCHOFIELD BRK*   N/A     66  63  88 MISG        N/A
SCHOFIELD S*   NOT AVBL
WAIANAE VLY*   NOT AVBL
KUAOKALA*      NOT AVBL
HONOULIUULI*   NOT AVBL
MOKUOLOE IS*   NOT AVBL
PALEHUA*       NOT AVBL
WAIAWA PHB*    NOT AVBL
$$

HIZ012>013-261200-
MOLOKAI-

CITY           SKY/WX    TMP DP  RH WIND       PRES   REMARKS
MOLOKAI AIRPT  CLEAR     68  67  96 NE8       30.10F
KALAUPAPA      NOT AVBL
MAKAPULAPAI*   NOT AVBL
MOLOKAI 1*     NOT AVBL
PUU ALII*      NOT AVBL
$$

HIZ016-261200-
KAHOOLAWE-

CITY           SKY/WX    TMP DP  RH WIND       PRES   REMARKS
KAHOOLAWE*     NOT AVBL
HAKIOAWA*      NOT AVBL
HONOKANAIA*      N/A     78  62  57 NE12G33   30.03F
KANELOA*         N/A     73  64  73 E18G35    30.15F
KEALIALALO*    NOT AVBL
LUA MAKIKA*    NOT AVBL
$$

HIZ014>015-261200-
LANAI-

CITY           SKY/WX    TMP DP  RH WIND       PRES   REMARKS
LANAI CITY     FAIR      68  64  87 N7        30.14F
LANAI 1*       NOT AVBL
$$

HIZ017>028-261200-
MAUI-

CITY           SKY/WX    TMP DP  RH WIND       PRES   REMARKS
KAHULUI        CLEAR     69  65  86 N3        30.07F
KAPALUA-W MAUI NOT AVBL
HANA AIRPORT   NOT AVBL
HANA*            N/A     73 N/A N/A SE3         N/A
HALEAKALA SUMM   N/A     48 -11   8 E26         N/A
MAALAEA BAY*   NOT AVBL
HALEAKALA*     NOT AVBL
KAUPO GAP*     NOT AVBL
KULA 1*          N/A     46  43  87 SE3         N/A
$$

HIZ023>026-261200-
BIG ISLAND OF HAWAII COAST AND LOWER SLOPES-

CITY           SKY/WX    TMP DP  RH WIND       PRES   REMARKS
KAILUA KONA    MOCLDY    77  64  64 NE5       30.05F
HILO           CLEAR     69  62  78 SW5       30.11F
HONOKAA*         N/A     68 N/A N/A VRB1        N/A
KAWAIHAE MWT*    N/A     75 N/A N/A NE7         N/A
KAWAIHAE*      NOT AVBL
SOUTH POINT*     N/A     70 N/A N/A N13         N/A
UPOLU AIRPORT* NOT AVBL
KAMUELA*       PTSUNNY   57  55  94 NE6       30.17F
HAKALAU*         N/A     43  32  65 SW5         N/A
KALOKO-HONOKO* NOT AVBL
PALI 2*          N/A     64  57  77 S12G18      N/A
KEALAKOMO*       N/A     75  61  60 N9G18       N/A
KAUPULEHU*     NOT AVBL
KAPAPALA*        N/A     65  55  69 N5G12       N/A
LOWER KAHUKU*  NOT AVBL
PUHE CS*       NOT AVBL
PUHO CS*       NOT AVBL
PTA KEAMUKU*     N/A     61  57  88 CALM        N/A
WAIKOLOA*      NOT AVBL
$$

HIZ027>028-261200-
BIG ISLAND OF HAWAII INTERIOR AND SUMMMITS-

CITY           SKY/WX    TMP DP  RH WIND       PRES   REMARKS
BRADSHAW FIELD MOCLDY    48  43  81 S3        30.36F
MK VISITOR CEN   N/A     54 -29   3 NE9         N/A
MAUNA KEA*       N/A     34 -22   8 E7          N/A  WCI  28
MAUNA LOA*     NOT AVBL
MAUNA LOA 1*   NOT AVBL
PTA KIPUKA*      N/A     48  48 100 S6          N/A
PTA RANGE 17*    N/A     52  43  71 E16G26      N/A
PTA WEST*        N/A     55  52  88 NW5         N/A
NENE CABIN*    NOT AVBL
AHUMOA*        NOT AVBL
PTA PORTABLE*  NOT AVBL
PUU MALI*        N/A     50  36  57 SW2G12      N/A
$$

HIC003-261200-
NORTHWEST ISLANDS-

CITY           SKY/WX    TMP DP  RH WIND       PRES   REMARKS
MIDWAY ISLAND  LGT RAIN  66  59  77 N12       30.13F
MIDWAY NOS*    NOT AVBL
FRENCH FRIGATE NOT AVBL
$$

PHZ110>124-180-261200-
BUOY REPORTS

STATION/POSITION TIME  TEMP    WIND        PRES    WAVE   SWELL
                       AIR SEA DIR/SP/G            HT/PER HT/DIR
                 (UTC) (F)     (DEG/KT/KT) (MB)    (FT/S) (FT/D)
BUOY 51001       1050   76 77  100/ 10/ 12 1020.5S   6/12   5/320
BUOY 51101       1050   76 77  100/ 10/ 12 1021.0S   6/ 8   5/130
BUOY 51100       NOT AVBL
BUOY 51002       1050   78 78   80/ 17/ 23 1016.5F   8/ 9   5/100
BUOY 51003       1050   78 79   90/ 12/ 14 1017.9F   6/10   5/120
BUOY 51004       0950      78   80/ 14/ 17 1017.9    7/ 8   5/100
BARBERS PT BUOY  NOT AVBL
WAIMEA BAY BUOY  1032      77                N/A     3/13   2/320
KAILUA BAY BUOY  1034      78                N/A     6/ 6   2/ 90
LANAI BUOY       1045      78                N/A     3/12   2/230
BARBERS PT 2     NOT AVBL
PAUWELA MAUI     1039      77                N/A     5/ 9   2/340
HILO             1042      78                N/A     6/ 9   2/360
KANEOHE BAY BUOY 1055      78                N/A     4/ 6   2/340
HANALEI KAUAI    1052      77                N/A     5/12   2/320
KAHULUI HARBOR   1042   73 79  350/  3/  7 1018.5F
HONOLULU HARBOR  1042   77 79   60/  3/  7 1019.7F
KILO NALU        NOT AVBL
HILO HARBOR      1042   70 76  190/  4/  5 1019.3F
MOKUOLOE         1036   77 80   90/  6/ 10 1019.6F
NAWILIWILI       1048   76      80/ 13/ 15 1019.4F
WHOTS BUOY       NOT AVBL
BUOY 51028       NOT AVBL
$$

......................KEY........................................
  SKY/WX - SKY CONDITIONS/PRESENT WEATHER
  TMP    - TEMPERATURE IN FAHRENHEIT
  DWPT   - DEWPOINT IN FAHRENHEIT
  RH     - RELATIVE HUMIDITY IN PERCENT
  WIND   - DIRECTION AND SPEED /MPH FOR ISLANDS...KTS FOR BUOYS/
  PRES   - MEAN SEA LEVEL PRESSURE IN INCHES OF HG
  VSB    - VISIBILITY IN MILES
  HX     - HEAT INDEX
  WCI    - WIND CHILL INDEX
  VRB    - VARIABLE WIND DIRECTION
  N/A    - NOT AVAILABLE




USA.gov is the U.S. government's official web portal to all federal, state and local government web resources and services.